TimeCDT,TemperatureF,Dew PointF,Humidity,Sea Level PressureIn,VisibilityMPH,Wind Direction,Wind SpeedMPH,Gust SpeedMPH,PrecipitationIn,Events,Conditions,WindDirDegrees,DateUTC
12:53 AM,71.1,68.0,90,30.05,7.0,SSE,11.5,-,N/A,,Mostly Cloudy,160,2012-10-14 05:53:00
1:09 AM,71.6,68.0,88,30.08,7.0,SSE,12.7,-,N/A,,Overcast,160,2012-10-14 06:09:00
1:53 AM,72.0,68.0,87,30.04,8.0,SSE,12.7,19.6,N/A,,Overcast,160,2012-10-14 06:53:00
2:00 AM,71.6,68.0,88,30.06,8.0,SSE,10.4,19.6,N/A,,Overcast,160,2012-10-14 07:00:00
2:53 AM,73.0,68.0,84,30.02,8.0,South,12.7,-,N/A,,Overcast,180,2012-10-14 07:53:00
3:53 AM,73.0,68.0,84,30.02,8.0,South,13.8,20.7,N/A,,Overcast,180,2012-10-14 08:53:00
4:23 AM,71.6,68.0,88,30.03,8.0,South,13.8,-,N/A,,Scattered Clouds,170,2012-10-14 09:23:00
4:32 AM,73.4,69.8,88,30.04,8.0,South,11.5,-,N/A,,Mostly Cloudy,180,2012-10-14 09:32:00
4:44 AM,73.4,69.8,88,30.04,8.0,South,11.5,-,N/A,,Mostly Cloudy,170,2012-10-14 09:44:00
4:53 AM,73.0,69.1,87,30.02,8.0,South,11.5,-,N/A,,Overcast,180,2012-10-14 09:53:00
5:53 AM,72.0,69.1,91,30.05,7.0,South,6.9,-,N/A,,Overcast,190,2012-10-14 10:53:00
6:49 AM,71.6,69.8,94,30.11,6.0,South,5.8,-,N/A,,Scattered Clouds,180,2012-10-14 11:49:00
6:53 AM,72.0,69.1,91,30.09,6.0,South,5.8,-,N/A,,Partly Cloudy,190,2012-10-14 11:53:00
7:53 AM,72.0,69.1,91,30.11,4.0,South,4.6,-,N/A,,Mostly Cloudy,170,2012-10-14 12:53:00
8:53 AM,73.9,70.0,87,30.13,6.0,South,4.6,-,N/A,,Partly Cloudy,170,2012-10-14 13:53:00
9:53 AM,77.0,70.0,79,30.13,8.0,South,9.2,-,N/A,,Partly Cloudy,180,2012-10-14 14:53:00
10:38 AM,78.8,69.8,74,30.15,10.0,South,9.2,18.4,N/A,,Mostly Cloudy,190,2012-10-14 15:38:00
10:53 AM,78.1,69.1,74,30.12,10.0,SSW,11.5,-,N/A,,Mostly Cloudy,200,2012-10-14 15:53:00
11:04 AM,77.0,69.8,78,30.14,8.0,SSW,8.1,-,0.00,Rain,Light Rain,200,2012-10-14 16:04:00
11:53 AM,79.0,71.1,77,30.09,9.0,South,5.8,-,0.00,,Clear,180,2012-10-14 16:53:00
12:53 PM,80.1,69.1,69,30.03,10.0,South,9.2,-,N/A,,Clear,180,2012-10-14 17:53:00
1:53 PM,81.0,69.1,67,30.00,10.0,SSW,8.1,-,N/A,,Clear,200,2012-10-14 18:53:00
3:53 PM,82.0,68.0,62,29.96,10.0,SSW,10.4,-,N/A,,Overcast,200,2012-10-14 20:53:00
4:53 PM,82.9,68.0,60,29.96,10.0,SW,9.2,-,N/A,,Mostly Cloudy,220,2012-10-14 21:53:00
5:53 PM,81.0,68.0,65,29.95,10.0,SSW,6.9,-,N/A,,Mostly Cloudy,210,2012-10-14 22:53:00
6:53 PM,78.1,69.1,74,29.96,10.0,SSW,3.5,-,N/A,,Mostly Cloudy,210,2012-10-14 23:53:00
7:53 PM,75.0,69.1,82,29.96,10.0,SSW,5.8,-,N/A,,Clear,200,2012-10-15 00:53:00
8:53 PM,73.9,69.1,85,29.96,10.0,SSW,5.8,-,N/A,,Clear,210,2012-10-15 01:53:00
9:53 PM,73.0,69.1,87,29.97,8.0,SSW,3.5,-,N/A,,Clear,200,2012-10-15 02:53:00
10:05 PM,73.4,69.8,88,29.99,8.0,Calm,Calm,-,N/A,Thunderstorm,Clear,0,2012-10-15 03:05:00
10:33 PM,73.4,69.8,88,30.01,8.0,SW,5.8,-,N/A,,Clear,220,2012-10-15 03:33:00
10:53 PM,73.9,70.0,87,30.00,9.0,NW,8.1,-,N/A,,Scattered Clouds,320,2012-10-15 03:53:00
11:53 PM,71.1,68.0,90,29.97,10.0,Calm,Calm,-,N/A,,Scattered Clouds,0,2012-10-15 04:53:00